"Timestamp","TZ","WindDir_Mean (deg)","WindSpd_Mean (km/h)","WindSpd_Min (km/h)","WindSpd_Max (km/h)","Temp_Mean (deg)","RH_Mean (%)","MSLP_Mean (hPa)","Rain_Acc (mm)","Rain_Intensity (mm/h)","Hail_Acc (hits/cm2)","Hail_Intensity (hits/cm2hr)","Solar_Mean (W/m2)"
2022/09/27 00:00:00.011,n,19,7.92,5.76,12.96,19.7,68.8,1016.02,0,0,0,0,0.02346
2022/09/27 00:01:00.001,n,350,20.519998,18.72,24.48,19.7,68.3,1016.02,0,0,0,0,0.024376
2022/09/27 00:02:00.001,n,4,10.08,6.84,14.4,19.7,68.6,1015.92,0,0,0,0,0.025215
2022/09/27 00:03:00.001,n,19,9.72,7.92,12.24,19.8,68.6,1015.92,0,0,0,0,0.024376
2022/09/27 00:04:00.001,n,21,8.28,4.68,9.72,19.7,68.6,1015.92,0,0,0,0,0.022583
2022/09/27 00:05:00.002,n,28,12.24,9.36,13.68,19.7,68.3,1015.92,0,0,0,0,0.025215
2022/09/27 00:06:00.003,n,20,9.36,7.92,11.88,19.7,68.3,1015.82,0,0,0,0,0.026093
2022/09/27 00:07:00.006,n,347,15.12,12.6,21.24,19.7,67.4,1015.82,0,0,0,0,0.019989
2022/09/27 00:08:00.008,n,19,6.48,4.32,9.36,19.7,67.4,1015.82,0,0,0,0,0.02346
2022/09/27 00:09:00.017,n,8,5.04,3.24,8.28,19.8,67.5,1015.82,0,0,0,0,0.025215
2022/09/27 00:10:00.002,n,7,6.84,3.96,11.16,19.8,67.4,1015.82,0,0,0,0,0.021744
2022/09/27 00:11:00.001,n,348,14.4,12.6,18.359998,19.8,67.2,1015.72,0,0,0,0,0.019989
2022/09/27 00:12:00.001,n,27,11.52,10.08,14.4,19.8,67.2,1015.72,0,0,0,0,0.022583
2022/09/27 00:13:00.004,n,30,10.8,10.08,11.88,19.8,67.1,1015.72,0,0,0,0,0.021744
2022/09/27 00:14:00.005,n,21,9,7.92,11.16,19.8,67.2,1015.72,0,0,0,0,0.020866
2022/09/27 00:15:00.007,n,2,9.36,8.28,14.76,19.8,67,1015.72,0,0,0,0,0.024376
2022/09/27 00:16:00.009,n,15,12.24,10.440002,14.04,19.8,66.9,1015.72,0,0,0,0,0.021744
2022/09/27 00:17:00.012,n,357,7.2,5.76,7.92,19.8,67,1015.82,0,0,0,0,0.024376
2022/09/27 00:18:00.014,n,21,8.28,5.76,9.72,19.8,66.800004,1015.82,0,0,0,0,0.024376
2022/09/27 00:19:00.001,n,356,12.96,10.08,15.84,19.8,66.4,1015.82,0,0,0,0,0.025215
2022/09/27 00:20:00.002,n,347,9.72,9,13.32,19.8,66.5,1015.82,0,0,0,0,0.024376
2022/09/27 00:21:00.001,n,14,9,6.84,12.96,19.8,66.4,1015.92,0,0,0,0,0.026093
2022/09/27 00:22:00.002,n,356,11.16,9,18.359998,19.8,66.4,1015.82,0,0,0,0,0.020866
2022/09/27 00:23:00.001,n,16,10.440002,7.2,14.04,19.8,66.5,1015.82,0,0,0,0,0.02346
2022/09/27 00:24:00.002,n,29,7.56,2.52,9.36,19.8,66.5,1015.82,0,0,0,0,0.02346
2022/09/27 00:25:00.010,n,9,13.68,9.36,16.56,19.8,66.5,1015.82,0,0,0,0,0.02346
2022/09/27 00:26:00.013,n,16,11.52,11.16,12.24,19.8,66.6,1015.82,0,0,0,0,0.027809
2022/09/27 00:27:00.015,n,2,7.92,6.12,10.440002,19.8,66.6,1015.82,0,0,0,0,0.024376
2022/09/27 00:28:00.002,n,327,10.440002,7.2,15.84,19.7,66.5,1015.72,0,0,0,0,0.02346
2022/09/27 00:29:00.002,n,339,6.48,3.24,9.36,19.7,66.6,1015.72,0,0,0,0,0.021744
2022/09/27 00:30:00.004,n,5,21.24,18.72,22.68,19.7,66.199996,1015.62,0,0,0,0,0.027809
2022/09/27 00:31:00.005,n,357,12.24,9,13.68,19.7,66.300004,1015.72,0,0,0,0,0.020866
2022/09/27 00:32:00.007,n,338,13.32,11.16,17.64,19.7,66.4,1015.72,0,0,0,0,0.025215
2022/09/27 00:33:00.007,n,14,16.56,14.4,18,19.7,66.300004,1015.62,0,0,0,0,0.01915
2022/09/27 00:34:00.011,n,21,10.08,8.28,11.52,19.7,66.300004,1015.72,0,0,0,0,0.020866
2022/09/27 00:35:00.014,n,10,12.24,11.52,13.68,19.7,66.300004,1015.62,0,0,0,0,0.020866
2022/09/27 00:36:00.016,n,0,20.16,16.2,21.599998,19.7,66.1,1015.62,0,0,0,0,0.018234
2022/09/27 00:37:00.001,n,14,11.16,9.36,13.68,19.7,66.4,1015.62,0,0,0,0,0.016518
2022/09/27 00:38:00.004,n,5,17.64,13.68,25.199998,19.7,66.300004,1015.62,0,0,0,0,0.017395
2022/09/27 00:39:00.001,n,342,8.64,2.88,16.56,19.7,66.1,1015.62,0,0,0,0,0.020866
2022/09/27 00:40:00.008,n,18,10.08,8.64,11.88,19.7,66.199996,1015.62,0,0,0,0,0.022621
2022/09/27 00:41:00.001,n,8,15.48,11.88,18.72,19.7,66,1015.62,0,0,0,0,0.026131
2022/09/27 00:42:00.002,n,342,11.16,6.48,16.56,19.7,66.1,1015.62,0,0,0,0,0.029602
2022/09/27 00:43:00.001,n,20,14.04,11.16,16.919998,19.7,66.1,1015.62,0,0,0,0,0.030441
2022/09/27 00:44:00.011,n,15,12.96,11.16,14.76,19.6,66.1,1015.52,0,0,0,0,0.029602
2022/09/27 00:45:00.004,n,353,11.16,9,13.32,19.6,66.1,1015.62,0,0,0,0,0.027008
2022/09/27 00:46:00.001,n,14,13.32,9,15.12,19.6,66,1015.62,0,0,0,0,0.026131
2022/09/27 00:47:00.001,n,5,11.88,10.440002,13.32,19.6,65.9,1015.62,0,0,0,0,0.027008
2022/09/27 00:48:00.001,n,5,21.599998,18.359998,25.919998,19.6,65.800004,1015.62,0,0,0,0,0.024376
2022/09/27 00:49:00.002,n,12,12.6,10.8,13.68,19.6,65.6,1015.62,0,0,0,0,0.027008
2022/09/27 00:50:00.005,n,3,9.72,7.92,10.440002,19.6,65.6,1015.72,0,0,0,0,0.023499
2022/09/27 00:51:00.007,n,10,9.36,8.64,12.24,19.6,66,1015.62,0,0,0,0,0.027008
2022/09/27 00:52:00.011,n,333,8.64,6.84,12.24,19.6,65.800004,1015.62,0,0,0,0,0.024376
2022/09/27 00:53:00.013,n,17,8.28,5.4,9.36,19.6,65.699996,1015.62,0,0,0,0,0.023499
2022/09/27 00:54:00.015,n,13,10.8,9.36,12.6,19.6,65.800004,1015.62,0,0,0,0,0.024376
2022/09/27 00:55:00.002,n,9,15.84,13.32,18.359998,19.6,65.800004,1015.62,0,0,0,0,0.024376
2022/09/27 00:56:00.001,n,354,11.52,5.76,14.04,19.6,65.9,1015.62,0,0,0,0,0.024376
2022/09/27 00:57:00.005,n,9,10.08,8.64,11.16,19.6,65.9,1015.52,0,0,0,0,0.022621
2022/09/27 00:58:00.007,n,25,5.76,4.32,10.8,19.6,66.1,1015.52,0,0,0,0,0.022621
2022/09/27 00:59:00.008,n,16,13.68,12.96,15.48,19.5,66,1015.42,0,0,0,0,0.023499
2022/09/27 01:00:00.009,n,5,7.56,3.96,10.8,19.5,66.300004,1015.42,0,0,0,0,0.024376
2022/09/27 01:01:00.013,n,356,11.88,10.08,14.76,19.5,66.300004,1015.52,0,0,0,0,0.021782
2022/09/27 01:02:00.016,n,9,6.48,5.4,8.28,19.5,66.4,1015.52,0,0,0,0,0.023499
2022/09/27 01:03:00.004,n,3,6.12,3.96,7.2,19.5,66.199996,1015.52,0,0,0,0,0.022621
2022/09/27 01:04:00.001,n,26,18,17.28,18.72,19.5,65.699996,1015.42,0,0,0,0,0.027008
2022/09/27 01:05:00.001,n,353,11.16,9.36,14.04,19.5,66.1,1015.52,0,0,0,0,0.021782
2022/09/27 01:06:00.001,n,14,2.16,1.44,2.88,19.5,66.1,1015.52,0,0,0,0,0.021782
2022/09/27 01:07:00.002,n,0,10.08,6.48,14.4,19.5,66.1,1015.52,0,0,0,0,0.020027
2022/09/27 01:08:00.003,n,17,9.36,3.24,12.96,19.5,66,1015.42,0,0,0,0,0.025215
2022/09/27 01:09:00.002,n,316,8.28,6.12,9.36,19.5,66.699996,1015.42,0,0,0,0,0.024376
2022/09/27 01:10:00.014,n,351,10.440002,7.2,14.04,19.5,66.1,1015.42,0,0,0,0,0.024376
2022/09/27 01:11:00.016,n,24,7.2,6.48,7.92,19.4,66.199996,1015.42,0,0,0,0,0.024376
2022/09/27 01:12:00.005,n,28,7.2,5.76,10.8,19.4,66.300004,1015.32,0,0,0,0,0.026131
2022/09/27 01:13:00.001,n,23,5.4,3.6,6.48,19.4,66.199996,1015.32,0,0,0,0,0.021782
2022/09/27 01:14:00.001,n,5,16.919998,15.48,19.44,19.4,66.199996,1015.22,0,0,0,0,0.022621
2022/09/27 01:15:00.001,n,1,9.72,6.84,13.68,19.4,66,1015.22,0,0,0,0,0.020866
2022/09/27 01:16:00.002,n,344,11.52,10.8,14.04,19.4,66.5,1015.22,0,0,0,0,0.023499
2022/09/27 01:17:00.005,n,37,7.92,6.48,10.08,19.4,66.300004,1015.22,0,0,0,0,0.022621
2022/09/27 01:18:00.007,n,338,10.08,5.76,15.48,19.3,66.199996,1015.22,0,0,0,0,0.027008
2022/09/27 01:19:00.009,n,3,11.16,7.92,14.4,19.3,66,1015.22,0,0,0,0,0.024376
2022/09/27 01:20:00.005,n,4,9.36,7.2,12.24,19.3,66.199996,1015.22,0,0,0,0,0.022621
2022/09/27 01:21:00.008,n,13,15.48,12.6,16.56,19.3,66,1015.22,0,0,0,0,0.027008
2022/09/27 01:22:00.001,n,19,9.72,7.92,11.88,19.3,66,1015.22,0,0,0,0,0.021782
2022/09/27 01:23:00.001,n,339,10.08,6.12,12.96,19.3,65.9,1015.22,0,0,0,0,0.024376
2022/09/27 01:24:00.005,n,21,5.4,4.32,6.48,19.3,65.9,1015.22,0,0,0,0,0.022621
2022/09/27 01:25:00.008,n,21,7.56,6.84,8.28,19.3,65.699996,1015.22,0,0,0,0,0.021782
2022/09/27 01:26:00.001,n,354,2.16,1.08,2.88,19.3,65.9,1015.32,0,0,0,0,0.025215
2022/09/27 01:27:00.002,n,21,8.28,4.68,11.88,19.3,65.800004,1015.32,0,0,0,0,0.025215
2022/09/27 01:28:00.002,n,326,6.84,5.04,7.92,19.4,67.1,1015.32,0,0,0,0,0.022621
2022/09/27 01:29:00.003,n,20,6.12,4.32,9.36,19.4,65.9,1015.32,0,0,0,0,0.026131
2022/09/27 01:30:00.010,n,16,7.92,6.12,11.16,19.4,65.9,1015.32,0,0,0,0,0.024376
2022/09/27 01:31:00.001,n,30,4.68,2.52,6.12,19.3,65.800004,1015.32,0,0,0,0,0.024376
2022/09/27 01:32:00.001,n,17,9.36,7.92,12.6,19.3,65.800004,1015.22,0,0,0,0,0.024376
2022/09/27 01:33:00.002,n,338,5.4,2.88,7.56,19.3,66.4,1015.22,0,0,0,0,0.026131
2022/09/27 01:34:00.001,n,11,4.32,3.6,6.48,19.3,65.800004,1015.22,0,0,0,0,0.022621
2022/09/27 01:35:00.001,n,357,11.88,10.8,16.919998,19.3,65.699996,1015.22,0,0,0,0,0.021782
2022/09/27 01:36:00.003,n,19,10.08,7.2,12.96,19.3,65.9,1015.12,0,0,0,0,0.027847
2022/09/27 01:37:00.006,n,353,9,7.56,11.52,19.3,65.9,1015.12,0,0,0,0,0.025215
2022/09/27 01:38:00.010,n,356,6.84,4.32,8.28,19.3,65.699996,1015.12,0,0,0,0,0.025215
2022/09/27 01:39:00.012,n,331,8.28,6.84,8.64,19.3,65.800004,1015.12,0,0,0,0,0.023499
2022/09/27 01:40:00.001,n,36,6.12,4.68,7.2,19.3,65.800004,1015.12,0,0,0,0,0.027008
2022/09/27 01:41:00.002,n,8,6.48,5.4,7.56,19.3,65.699996,1015.12,0,0,0,0,0.025215
2022/09/27 01:42:00.004,n,341,5.76,4.68,6.12,19.3,66.199996,1015.22,0,0,0,0,0.027008
2022/09/27 01:43:00.004,n,282,4.68,3.96,5.4,19.3,66.9,1015.22,0,0,0,0,0.029602
2022/09/27 01:44:00.007,n,13,7.56,5.04,12.6,19.3,66.4,1015.32,0,0,0,0,0.027008
2022/09/27 01:45:00.008,n,288,3.6,2.88,4.32,19.4,67.7,1015.32,0,0,0,0,0.032196
2022/09/27 01:46:00.012,n,284,5.4,5.04,6.12,19.4,66.6,1015.42,0,0,0,0,0.029602
2022/09/27 01:47:00.013,n,295,3.24,2.52,3.6,19.4,67.9,1015.42,0,0,0,0,0.025215
2022/09/27 01:48:00.017,n,264,0.72,0.36,1.08,19.4,66.800004,1015.42,0,0,0,0,0.027847
2022/09/27 01:49:00.002,n,341,2.88,2.16,3.6,19.4,68,1015.52,0,0,0,0,0.026131
2022/09/27 01:50:00.003,n,268,5.4,1.8,7.56,19.4,67.6,1015.52,0,0,0,0,0.029602
2022/09/27 01:51:00.006,n,273,3.96,1.08,7.56,19.4,68.1,1015.52,0,0,0,0,0.027847
2022/09/27 01:52:00.002,n,285,7.56,6.12,9.36,19.4,68.7,1015.42,0,0,0,0,0.028725
2022/09/27 01:53:00.002,n,263,1.8,1.44,2.16,19.4,67.8,1015.42,0,0,0,0,0.029602
2022/09/27 01:54:00.003,n,276,4.68,4.32,5.04,19.4,68.7,1015.42,0,0,0,0,0.033073
2022/09/27 01:55:00.006,n,284,4.32,4.32,4.68,19.3,68.1,1015.42,0,0,0,0,0.030441
2022/09/27 01:56:00.009,n,271,5.04,3.96,6.12,19.3,70.2,1015.32,0,0,0,0,0.033073
2022/09/27 01:57:00.010,n,64,0.72,0.36,1.08,19.3,68.6,1015.32,0,0,0,0,0.032196
2022/09/27 01:58:00.001,n,215,1.44,1.44,1.8,19.3,68,1015.32,0,0,0,0,0.03479
2022/09/27 01:59:00.001,n,264,1.08,0.72,2.16,19.2,67.8,1015.42,0,0,0,0,0.031357
2022/09/27 02:00:00.002,n,242,2.88,2.52,3.6,19.2,68.1,1015.42,0,0,0,0,0.031357
2022/09/27 02:01:00.003,n,86,1.8,1.08,2.16,19.2,68.1,1015.42,0,0,0,0,0.033951
2022/09/27 02:02:00.005,n,247,5.4,3.6,6.48,19.1,68.2,1015.42,0,0,0,0,0.033951
2022/09/27 02:03:00.009,n,224,3.24,1.44,4.32,19.1,68.5,1015.42,0,0,0,0,0.032196
2022/09/27 02:04:00.011,n,321,3.96,3.6,5.4,19.1,70.1,1015.42,0,0,0,0,0.035667
2022/09/27 02:05:00.002,n,284,3.6,2.16,5.04,19.1,70.2,1015.52,0,0,0,0,0.032196
2022/09/27 02:06:00.003,n,278,6.48,5.76,7.92,19.1,70.2,1015.52,0,0,0,0,0.030441
2022/09/27 02:07:00.001,n,320,2.88,0.72,3.96,19.1,71.9,1015.42,0,0,0,0,0.0383
2022/09/27 02:08:00.002,n,278,4.32,3.24,5.4,19.1,71.9,1015.42,0,0,0,0,0.036583
2022/09/27 02:09:00.002,n,307,1.8,0.72,4.32,19.1,70.5,1015.42,0,0,0,0,0.032196
2022/09/27 02:10:00.001,n,337,1.08,0.36,3.24,19.1,70.2,1015.42,0,0,0,0,0.03479
2022/09/27 02:11:00.001,n,302,2.88,2.16,3.24,19,69.9,1015.42,0,0,0,0,0.035667
2022/09/27 02:12:00.005,n,3,2.88,1.44,6.84,19,69.8,1015.42,0,0,0,0,0.037422
2022/09/27 02:13:00.008,n,24,2.52,1.8,3.24,19,69.8,1015.32,0,0,0,0,0.036583
2022/09/27 02:14:00.010,n,3,2.52,0.72,4.68,18.9,69.9,1015.32,0,0,0,0,0.036583
2022/09/27 02:15:00.016,n,346,1.08,0.36,1.44,18.9,70,1015.32,0,0,0,0,0.035667
2022/09/27 02:16:00.003,n,18,3.24,2.16,4.32,18.9,69.9,1015.32,0,0,0,0,0.0383
2022/09/27 02:17:00.004,n,19,4.32,3.6,5.4,18.9,70.1,1015.32,0,0,0,0,0.035667
2022/09/27 02:18:00.002,n,23,2.88,2.16,3.6,18.8,69.9,1015.32,0,0,0,0,0.037422
2022/09/27 02:19:00.001,n,10,3.6,2.52,3.96,18.8,70.1,1015.32,0,0,0,0,0.037422
2022/09/27 02:20:00.002,n,4,2.52,2.16,2.88,18.8,70.1,1015.22,0,0,0,0,0.039177
2022/09/27 02:21:00.001,n,21,3.24,2.16,3.96,18.8,70.2,1015.22,0,0,0,0,0.036583
2022/09/27 02:22:00.002,n,16,3.6,3.24,3.96,18.8,70.2,1015.22,0,0,0,0,0.037422
2022/09/27 02:23:00.006,n,18,3.24,3.24,3.6,18.7,70.3,1015.22,0,0,0,0,0.039177
2022/09/27 02:24:00.009,n,15,6.48,5.4,11.52,18.7,70.4,1015.22,0,0,0,0,0.035667
2022/09/27 02:25:00.002,n,4,4.68,3.6,5.4,18.7,70.6,1015.22,0,0,0,0,0.037422
2022/09/27 02:26:00.001,n,17,3.96,3.24,4.32,18.6,70.8,1015.22,0,0,0,0,0.0383
2022/09/27 02:27:00.001,n,14,4.68,4.32,5.04,18.6,71,1015.22,0,0,0,0,0.03479
2022/09/27 02:28:00.003,n,5,2.88,2.16,3.24,18.6,71.2,1015.22,0,0,0,0,0.037422
2022/09/27 02:29:00.005,n,18,4.32,3.96,5.04,18.6,71.1,1015.12,0,0,0,0,0.0383
2022/09/27 02:30:00.001,n,25,3.6,3.24,3.96,18.6,71,1015.12,0,0,0,0,0.0383
2022/09/27 02:31:00.002,n,25,3.24,1.8,4.32,18.5,71.1,1015.12,0,0,0,0,0.0383
2022/09/27 02:32:00.005,n,30,3.6,2.52,4.68,18.5,71.2,1015.12,0,0,0,0,0.039177
2022/09/27 02:33:00.016,n,7,3.6,3.24,4.32,18.5,71.2,1015.12,0,0,0,0,0.040016
2022/09/27 02:34:00.002,n,357,2.52,1.44,3.24,18.5,71.2,1015.12,0,0,0,0,0.037422
2022/09/27 02:35:00.002,n,9,2.88,2.52,2.88,18.5,71.3,1015.12,0,0,0,0,0.040016
2022/09/27 02:36:00.001,n,17,3.24,2.88,3.96,18.5,71.3,1015.12,0,0,0,0,0.042648
2022/09/27 02:37:00.002,n,14,4.32,3.96,4.68,18.5,71,1015.12,0,0,0,0,0.041771
2022/09/27 02:38:00.001,n,12,2.88,2.16,3.6,18.5,70.9,1015.12,0,0,0,0,0.041771
2022/09/27 02:39:00.001,n,13,2.52,2.52,2.88,18.5,70.9,1015.12,0,0,0,0,0.040016
2022/09/27 02:40:00.002,n,23,3.24,2.88,3.6,18.6,71,1015.12,0,0,0,0,0.035667
2022/09/27 02:41:00.012,n,23,4.32,4.32,4.68,18.6,70.9,1015.02,0,0,0,0,0.039177
2022/09/27 02:42:00.004,n,30,2.88,2.16,3.6,18.6,70.9,1014.92,0,0,0,0,0.037422
2022/09/27 02:43:00.001,n,85,0.72,0.36,1.44,18.6,71,1014.92,0,0,0,0,0.039177
2022/09/27 02:44:00.001,n,27,2.88,1.08,3.96,18.6,70.9,1014.92,0,0,0,0,0.039177
2022/09/27 02:45:00.001,n,36,5.4,4.68,5.76,18.6,70.7,1015.02,0,0,0,0,0.039177
2022/09/27 02:46:00.002,n,12,5.76,4.68,8.64,18.5,70.7,1015.02,0,0,0,0,0.040932
2022/09/27 02:47:00.001,n,25,3.6,3.24,3.96,18.5,70.8,1015.12,0,0,0,0,0.037422
2022/09/27 02:48:00.002,n,29,2.52,1.8,2.88,18.5,70.9,1015.12,0,0,0,0,0.039177
2022/09/27 02:49:00.004,n,20,2.16,1.44,2.88,18.6,71,1015.12,0,0,0,0,0.0383
2022/09/27 02:50:00.007,n,18,3.96,3.96,3.96,18.6,70.7,1015.12,0,0,0,0,0.03479
2022/09/27 02:51:00.011,n,27,3.6,3.6,4.32,18.6,70.8,1015.12,0,0,0,0,0.03479
2022/09/27 02:52:00.002,n,31,2.16,1.8,2.88,18.6,71,1015.12,0,0,0,0,0.037422
2022/09/27 02:53:00.002,n,17,4.32,3.96,4.68,18.6,70.8,1015.12,0,0,0,0,0.036583
2022/09/27 02:54:00.002,n,17,3.24,2.88,3.6,18.6,70.7,1015.12,0,0,0,0,0.035667
2022/09/27 02:55:00.001,n,15,2.16,2.16,2.52,18.6,70.8,1015.12,0,0,0,0,0.035667
2022/09/27 02:56:00.005,n,18,3.96,3.6,4.32,18.6,70.9,1015.02,0,0,0,0,0.03479
2022/09/27 02:57:00.008,n,16,3.24,2.88,3.6,18.6,71,1015.02,0,0,0,0,0.035667
2022/09/27 02:58:00.010,n,23,2.52,1.8,3.24,18.6,70.9,1015.02,0,0,0,0,0.0383
2022/09/27 02:59:00.012,n,23,5.04,5.04,5.04,18.5,70.9,1014.92,0,0,0,0,0.0383
2022/09/27 03:00:00.017,n,9,3.24,2.52,3.96,18.5,70.7,1014.92,0,0,0,0,0.035667
2022/09/27 03:01:00.003,n,17,3.6,3.24,3.6,18.5,70.7,1014.92,0,0,0,0,0.037422
2022/09/27 03:02:00.001,n,16,2.52,2.16,2.52,18.5,70.8,1014.92,0,0,0,0,0.037422
2022/09/27 03:03:00.001,n,0,1.44,0.72,2.52,18.5,70.7,1015.02,0,0,0,0,0.032196
2022/09/27 03:04:00.002,n,22,3.6,2.88,4.32,18.5,70.8,1015.02,0,0,0,0,0.033951
2022/09/27 03:05:00.008,n,6,3.24,2.16,3.6,18.5,70.8,1015.02,0,0,0,0,0.03479
2022/09/27 03:06:00.017,n,11,3.6,3.24,4.68,18.5,70.6,1015.02,0,0,0,0,0.03479
2022/09/27 03:07:00.001,n,16,2.88,2.52,3.6,18.6,70.7,1015.02,0,0,0,0,0.036583
2022/09/27 03:08:00.001,n,22,3.96,3.24,4.32,18.6,70.7,1014.92,0,0,0,0,0.036583
2022/09/27 03:09:00.017,n,22,2.52,2.16,2.88,18.6,70.7,1014.92,0,0,0,0,0.035667
2022/09/27 03:10:00.001,n,23,5.04,4.68,5.4,18.6,70.5,1014.92,0,0,0,0,0.03479
2022/09/27 03:11:00.002,n,19,5.04,4.32,5.76,18.6,70.4,1014.92,0,0,0,0,0.037422
2022/09/27 03:12:00.006,n,14,5.76,5.4,6.12,18.6,70.3,1014.92,0,0,0,0,0.03479
2022/09/27 03:13:00.002,n,26,4.32,3.6,5.76,18.6,70.4,1014.92,0,0,0,0,0.032196
2022/09/27 03:14:00.001,n,11,6.84,5.76,9.36,18.6,70.3,1014.92,0,0,0,0,0.033951
2022/09/27 03:15:00.001,n,7,5.04,3.6,7.2,18.6,70.3,1014.92,0,0,0,0,0.03479
2022/09/27 03:16:00.002,n,7,2.88,2.52,3.6,18.6,70.3,1014.92,0,0,0,0,0.033073
2022/09/27 03:17:00.003,n,11,3.96,3.24,4.32,18.6,70.2,1014.92,0,0,0,0,0.035667
2022/09/27 03:18:00.007,n,357,2.52,2.16,3.6,18.6,70.3,1014.92,0,0,0,0,0.033951
2022/09/27 03:19:00.002,n,31,2.52,1.8,3.6,18.6,70.2,1014.92,0,0,0,0,0.03479
2022/09/27 03:20:00.002,n,356,3.96,3.24,4.32,18.6,70,1014.92,0,0,0,0,0.03479
2022/09/27 03:21:00.003,n,15,2.88,2.16,3.24,18.6,70,1014.92,0,0,0,0,0.03479
2022/09/27 03:22:00.008,n,15,3.6,2.88,7.2,18.6,70,1014.92,0,0,0,0,0.039177
2022/09/27 03:23:00.009,n,9,5.4,4.68,9.36,18.6,69.6,1014.82,0,0,0,0,0.035667
2022/09/27 03:24:00.011,n,15,3.96,3.6,4.32,18.6,69.7,1014.82,0,0,0,0,0.035667
2022/09/27 03:25:00.002,n,26,2.52,1.8,2.88,18.6,69.8,1014.82,0,0,0,0,0.035667
2022/09/27 03:26:00.016,n,351,1.8,0,3.24,18.6,69.8,1014.72,0,0,0,0,0.033951
2022/09/27 03:27:00.002,n,35,2.52,1.8,2.88,18.6,69.8,1014.72,0,0,0,0,0.036583
2022/09/27 03:28:00.002,n,13,3.24,2.88,3.6,18.6,69.9,1014.72,0,0,0,0,0.035667
2022/09/27 03:29:00.001,n,22,2.88,2.88,3.24,18.6,70.1,1014.62,0,0,0,0,0.037422
2022/09/27 03:30:00.005,n,24,2.52,2.52,2.52,18.6,70.4,1014.62,0,0,0,0,0.03479
2022/09/27 03:31:00.006,n,14,3.96,3.6,3.96,18.6,70.6,1014.62,0,0,0,0,0.040016
2022/09/27 03:32:00.009,n,19,3.24,2.88,3.24,18.6,70.9,1014.52,0,0,0,0,0.033951
2022/09/27 03:33:00.001,n,17,2.52,2.16,2.52,18.5,70.6,1014.52,0,0,0,0,0.033951
2022/09/27 03:34:00.003,n,0,3.96,3.6,4.32,18.5,70.3,1014.52,0,0,0,0,0.036583
2022/09/27 03:35:00.003,n,13,3.24,2.88,3.6,18.5,70,1014.52,0,0,0,0,0.035667
2022/09/27 03:36:00.007,n,357,4.32,3.24,5.04,18.5,69.8,1014.52,0,0,0,0,0.032196
2022/09/27 03:37:00.001,n,13,3.96,3.24,4.68,18.5,69.6,1014.62,0,0,0,0,0.035667
2022/09/27 03:38:00.002,n,18,5.04,4.68,5.76,18.6,69.5,1014.62,0,0,0,0,0.035667
2022/09/27 03:39:00.001,n,358,3.6,2.88,4.68,18.6,69.3,1014.62,0,0,0,0,0.035667
2022/09/27 03:40:00.002,n,19,5.4,4.68,5.76,18.6,69,1014.62,0,0,0,0,0.040016
2022/09/27 03:41:00.001,n,14,3.6,2.88,3.96,18.6,69,1014.52,0,0,0,0,0.036583
2022/09/27 03:42:00.001,n,1,3.24,2.88,3.96,18.7,69.1,1014.62,0,0,0,0,0.035667
2022/09/27 03:43:00.002,n,338,3.96,2.88,5.04,18.7,69.1,1014.62,0,0,0,0,0.0383
2022/09/27 03:44:00.004,n,342,5.4,4.32,10.440002,18.7,68.7,1014.72,0,0,0,0,0.037422
2022/09/27 03:45:00.006,n,9,4.68,4.32,5.04,18.7,68.5,1014.72,0,0,0,0,0.033951
2022/09/27 03:46:00.001,n,4,5.04,4.32,5.76,18.7,68.2,1014.72,0,0,0,0,0.03479
2022/09/27 03:47:00.002,n,332,7.2,6.12,8.64,18.8,67.6,1014.72,0,0,0,0,0.03479
2022/09/27 03:48:00.001,n,1,2.52,1.8,3.24,18.8,67.2,1014.72,0,0,0,0,0.033073
2022/09/27 03:49:00.002,n,0,5.76,5.04,6.48,18.9,67,1014.72,0,0,0,0,0.03479
2022/09/27 03:50:00.005,n,7,3.96,3.24,5.4,18.9,67,1014.72,0,0,0,0,0.0383
2022/09/27 03:51:00.006,n,3,4.68,3.6,5.76,18.9,67.1,1014.72,0,0,0,0,0.036583
2022/09/27 03:52:00.009,n,16,3.24,2.88,3.6,19,67.3,1014.72,0,0,0,0,0.036583
2022/09/27 03:53:00.015,n,357,6.48,4.68,10.440002,19,67.8,1014.72,0,0,0,0,0.037422
2022/09/27 03:54:00.017,n,19,5.76,4.68,6.48,18.9,66.5,1014.72,0,0,0,0,0.0383
2022/09/27 03:55:00.004,n,325,1.08,0.36,1.44,18.9,67,1014.72,0,0,0,0,0.035667
2022/09/27 03:56:00.001,n,28,2.16,1.44,2.88,19,67.8,1014.82,0,0,0,0,0.033951
2022/09/27 03:57:00.001,n,348,7.92,6.84,8.28,19,68.1,1014.82,0,0,0,0,0.033951
2022/09/27 03:58:00.002,n,12,4.68,3.6,6.48,19,67.8,1014.92,0,0,0,0,0.03479
2022/09/27 03:59:00.001,n,283,3.24,2.52,3.96,19,68.7,1014.92,0,0,0,0,0.037422
2022/09/27 04:00:00.002,n,177,1.44,0.72,3.24,19,68.7,1014.92,0,0,0,0,0.035667
2022/09/27 04:01:00.005,n,300,1.44,0,4.32,19,68.7,1014.92,0,0,0,0,0.033073
2022/09/27 04:02:00.007,n,21,3.96,2.88,5.4,19,67.1,1014.92,0,0,0,0,0.03479
2022/09/27 04:03:00.009,n,1,4.68,3.24,5.76,19,67.6,1014.92,0,0,0,0,0.033073
2022/09/27 04:04:00.001,n,32,2.88,1.44,3.96,19,68.2,1014.92,0,0,0,0,0.0383
2022/09/27 04:05:00.001,n,358,5.4,5.04,5.4,19,68,1014.92,0,0,0,0,0.033073
2022/09/27 04:06:00.004,n,11,2.52,1.44,3.24,18.9,68.5,1014.92,0,0,0,0,0.037422
2022/09/27 04:07:00.006,n,284,6.12,5.4,6.84,18.9,70.5,1014.92,0,0,0,0,0.032196
2022/09/27 04:08:00.008,n,287,7.56,6.48,7.92,19,71.1,1014.92,0,0,0,0,0.033951
2022/09/27 04:09:00.010,n,279,5.4,5.04,6.12,19,72.5,1014.92,0,0,0,0,0.033073
2022/09/27 04:10:00.014,n,287,5.04,3.96,6.12,19.1,72.4,1014.92,0,0,0,0,0.033073
2022/09/27 04:11:00.002,n,275,5.04,4.32,5.76,19,71.5,1015.02,0,0,0,0,0.036583
2022/09/27 04:12:00.002,n,274,5.04,4.68,5.76,18.9,71.5,1015.12,0,0,0,0,0.033951
2022/09/27 04:13:00.001,n,186,4.68,3.96,6.48,18.8,71.2,1015.12,0,0,0,0,0.03479
2022/09/27 04:14:00.001,n,246,3.96,3.24,4.68,18.8,71.7,1015.12,0,0,0,0,0.033951
2022/09/27 04:15:00.001,n,259,3.96,2.88,9.36,18.7,72.5,1015.12,0,0,0,0,0.03479
2022/09/27 04:16:00.003,n,222,1.8,1.08,5.76,18.7,71.9,1015.22,0,0,0,0,0.035667
2022/09/27 04:17:00.006,n,222,2.88,1.44,4.32,18.7,71.7,1015.22,0,0,0,0,0.03479
2022/09/27 04:18:00.007,n,255,3.6,2.88,4.32,18.6,71.8,1015.22,0,0,0,0,0.035667
2022/09/27 04:19:00.008,n,209,3.96,3.6,4.32,18.6,72,1015.22,0,0,0,0,0.037422
2022/09/27 04:20:00.012,n,252,3.96,3.24,4.32,18.5,72,1015.22,0,0,0,0,0.036583
2022/09/27 04:21:00.013,n,237,2.52,2.16,2.88,18.5,72.2,1015.22,0,0,0,0,0.037422
2022/09/27 04:22:00.001,n,275,2.16,1.44,2.88,18.4,72.5,1015.22,0,0,0,0,0.035667
2022/09/27 04:23:00.005,n,235,2.16,1.8,4.32,18.4,72.6,1015.22,0,0,0,0,0.040016
2022/09/27 04:24:00.007,n,125,0.72,0.36,1.44,18.4,72.8,1015.12,0,0,0,0,0.03479
2022/09/27 04:25:00.007,n,322,1.44,0.36,2.88,18.4,73.9,1015.12,0,0,0,0,0.040016
2022/09/27 04:26:00.001,n,271,3.6,2.88,4.32,18.4,74.8,1015.12,0,0,0,0,0.040932
2022/09/27 04:27:00.001,n,256,3.6,1.44,10.440002,18.4,74.7,1015.12,0,0,0,0,0.040016
2022/09/27 04:28:00.002,n,254,4.32,1.08,5.04,18.5,74.7,1015.12,0,0,0,0,0.037422
2022/09/27 04:29:00.005,n,290,1.8,1.08,2.52,18.4,73.9,1015.12,0,0,0,0,0.036583
2022/09/27 04:30:00.006,n,35,4.32,3.6,5.04,18.3,73.6,1015.12,0,0,0,0,0.037422
2022/09/27 04:31:00.001,n,9,2.88,1.8,3.6,18.3,73.5,1015.12,0,0,0,0,0.035667
2022/09/27 04:32:00.001,n,19,3.24,2.88,3.6,18.2,73.7,1015.22,0,0,0,0,0.035667
2022/09/27 04:33:00.002,n,11,1.44,0.72,2.16,18.2,73.9,1015.22,0,0,0,0,0.03479
2022/09/27 04:34:00.005,n,323,1.8,1.08,3.24,18.2,74,1015.22,0,0,0,0,0.037422
2022/09/27 04:35:00.007,n,293,1.44,0.36,4.32,18.2,74.6,1015.22,0,0,0,0,0.033951
2022/09/27 04:36:00.007,n,301,1.08,0.36,3.6,18.2,74.5,1015.12,0,0,0,0,0.0383
2022/09/27 04:37:00.009,n,330,1.8,1.08,3.24,18.2,74.1,1015.12,0,0,0,0,0.033073
2022/09/27 04:38:00.011,n,324,2.88,2.16,3.96,18.2,74.5,1015.12,0,0,0,0,0.036583
2022/09/27 04:39:00.010,n,313,1.08,0.72,1.8,18.2,74.3,1015.12,0,0,0,0,0.036583
2022/09/27 04:40:00.001,n,358,4.68,3.24,5.04,18.2,74,1015.12,0,0,0,0,0.03479
2022/09/27 04:41:00.001,n,200,2.16,1.08,4.32,18.1,74,1015.22,0,0,0,0,0.033073
2022/09/27 04:42:00.005,n,280,1.8,1.44,2.16,18.1,74.2,1015.22,0,0,0,0,0.040016
2022/09/27 04:43:00.001,n,321,1.08,0.72,1.8,18.1,74.4,1015.32,0,0,0,0,0.036583
2022/09/27 04:44:00.001,n,283,3.96,3.6,4.68,18.1,74.4,1015.32,0,0,0,0,0.03479
2022/09/27 04:45:00.002,n,263,2.16,1.44,2.88,18.1,74.7,1015.32,0,0,0,0,0.033073
2022/09/27 04:46:00.003,n,70,1.44,0.36,1.8,18.1,74.6,1015.32,0,0,0,0,0.032196
2022/09/27 04:47:00.005,n,13,1.8,0.72,2.88,18.1,74.1,1015.32,0,0,0,0,0.036583
2022/09/27 04:48:00.008,n,18,0.72,0,1.08,18.1,74.2,1015.32,0,0,0,0,0.035667
2022/09/27 04:49:00.002,n,158,0.72,0.36,1.44,18.1,74,1015.32,0,0,0,0,0.033951
2022/09/27 04:50:00.001,n,341,2.16,1.8,3.6,18.1,74.1,1015.42,0,0,0,0,0.03479
2022/09/27 04:51:00.001,n,242,2.16,0.36,5.76,18.1,74.4,1015.42,0,0,0,0,0.033951
2022/09/27 04:52:00.003,n,350,2.52,1.08,5.76,18.1,74.3,1015.42,0,0,0,0,0.033951
2022/09/27 04:53:00.006,n,345,0.72,0.36,1.08,18.1,74.1,1015.52,0,0,0,0,0.03479
2022/09/27 04:54:00.010,n,26,2.88,1.44,4.32,18.1,74,1015.52,0,0,0,0,0.03479